| time (UTC) | temp C | wind direction | speed KPH | gust KPH | rain 1hr cm | rain 24hr cm | rain mn cm | humidity % | barometer mb |
| 20260502170125 | 8 | 343 | 3.2 | 3.2 | 0.00 | 0.00 | 0.00 | 56 | 1016.0 |
| 20260502164112 | 11 | 13 | 3.2 | 4.8 | 0.00 | 0.00 | 0.00 | 52 | 1016.0 |
| 20260502163608 | 10 | 139 | 3.2 | 4.8 | 0.00 | 0.00 | 0.00 | 56 | 1016.0 |
| 20260502163105 | 9 | 137 | 1.6 | 1.6 | 0.00 | 0.00 | 0.00 | 56 | 1016.1 |
| 20260502162602 | 8 | 336 | 1.6 | 3.2 | 0.00 | 0.00 | 0.00 | 58 | 1016.4 |
| 20260502162059 | 8 | 59 | 1.6 | 3.2 | 0.00 | 0.00 | 0.00 | 56 | 1016.3 |
| 20260502161556 | 8 | 80 | 1.6 | 3.2 | 0.00 | 0.00 | 0.00 | 57 | 1016.5 |
| 20260502161053 | 8 | 277 | 3.2 | 4.8 | 0.00 | 0.00 | 0.00 | 56 | 1016.4 |
| 20260502160551 | 8 | 263 | 6.4 | 6.4 | 0.00 | 0.00 | 0.00 | 54 | 1016.3 |
| 20260502152004 | 9 | 228 | 3.2 | 4.8 | 0.00 | 0.00 | 0.00 | 56 | 1016.2 |
| 20260502151500 | 8 | 268 | 8.0 | 12.9 | 0.00 | 0.00 | 0.00 | 54 | 1016.5 |
| 20260502150958 | 8 | 51 | 0.0 | 0.0 | 0.00 | 0.00 | 0.00 | 55 | 1016.5 |
| 20260502150455 | 8 | 230 | 4.8 | 4.8 | 0.00 | 0.00 | 0.00 | 57 | 1016.4 |
| 20260502130341 | 6 | 260 | 3.2 | 3.2 | 0.00 | 0.00 | 0.00 | 75 | 1016.4 |
| 20260502123323 | 6 | 64 | 0.0 | 0.0 | 0.00 | 0.00 | 0.00 | 78 | 1016.1 |
| 20260502122820 | 6 | 114 | 0.0 | 0.0 | 0.00 | 0.00 | 0.00 | 80 | 1016.2 |
| 20260502122316 | 5 | 104 | 0.0 | 0.0 | 0.00 | 0.00 | 0.00 | 81 | 1016.2 |
| 20260502121815 | 4 | 86 | 0.0 | 0.0 | 0.00 | 0.00 | 0.00 | 89 | 1016.1 |
| 20260502121312 | 3 | 103 | 0.0 | 0.0 | 0.00 | 0.00 | 0.00 | 89 | 1016.1 |
| 20260502120809 | 3 | 93 | 0.0 | 0.0 | 0.00 | 0.00 | 0.00 | 91 | 1016.1 |
| 20260502120305 | 3 | 92 | 0.0 | 0.0 | 0.00 | 0.00 | 0.00 | 91 | 1015.8 |
| 20260502115803 | 3 | 86 | 0.0 | 0.0 | 0.00 | 0.00 | 0.00 | 92 | 1016.0 |
| 20260502115300 | 3 | 84 | 0.0 | 0.0 | 0.00 | 0.00 | 0.00 | 93 | 1016.0 |
| 20260502114755 | 3 | 86 | 0.0 | 0.0 | 0.00 | 0.00 | 0.00 | 93 | 1015.8 |
| 20260502114247 | 2 | 86 | 0.0 | 0.0 | 0.00 | 0.00 | 0.00 | 94 | 1016.1 |
| 20260502113744 | 2 | 82 | 0.0 | 0.0 | 0.00 | 0.00 | 0.00 | 94 | 1016.2 |
| 20260502113242 | 2 | 73 | 0.0 | 0.0 | 0.00 | 0.00 | 0.00 | 95 | 1016.1 |
| 20260502112740 | 2 | 90 | 0.0 | 0.0 | 0.00 | 0.00 | 0.00 | 95 | 1015.7 |
| 20260502112237 | 2 | 69 | 0.0 | 0.0 | 0.00 | 0.00 | 0.00 | 95 | 1015.6 |
| 20260502111734 | 2 | 69 | 0.0 | 0.0 | 0.00 | 0.00 | 0.00 | 95 | 1016.0 |
| 20260502111232 | 1 | 89 | 0.0 | 0.0 | 0.00 | 0.00 | 0.00 | 95 | 1015.8 |
| 20260502110729 | 1 | 89 | 0.0 | 0.0 | 0.00 | 0.00 | 0.00 | 95 | 1015.8 |
| 20260502110227 | 1 | 94 | 0.0 | 0.0 | 0.00 | 0.00 | 0.00 | 95 | 1015.8 |
| 20260502105725 | 1 | 87 | 0.0 | 0.0 | 0.00 | 0.00 | 0.00 | 95 | 1015.7 |
| 20260502105221 | 1 | 73 | 0.0 | 0.0 | 0.00 | 0.00 | 0.00 | 95 | 1015.7 |
| 20260502104719 | 1 | 90 | 0.0 | 0.0 | 0.00 | 0.00 | 0.00 | 95 | 1015.6 |
| 20260502104216 | 1 | 74 | 0.0 | 0.0 | 0.00 | 0.00 | 0.00 | 95 | 1015.5 |
| 20260502103713 | 1 | 91 | 0.0 | 0.0 | 0.00 | 0.00 | 0.00 | 95 | 1015.8 |
| 20260502103211 | 1 | 92 | 0.0 | 0.0 | 0.00 | 0.00 | 0.00 | 95 | 1015.7 |
| 20260502102708 | 1 | 89 | 0.0 | 0.0 | 0.00 | 0.00 | 0.00 | 95 | 1015.6 |
| 20260502102204 | 1 | 81 | 0.0 | 0.0 | 0.00 | 0.00 | 0.00 | 95 | 1016.0 |
| 20260502101703 | 1 | 81 | 0.0 | 0.0 | 0.00 | 0.00 | 0.00 | 95 | 1016.3 |
| 20260502101201 | 1 | 89 | 0.0 | 0.0 | 0.00 | 0.00 | 0.00 | 94 | 1016.1 |
| 20260502100658 | 1 | 71 | 0.0 | 0.0 | 0.00 | 0.00 | 0.00 | 94 | 1015.7 |
| 20260502100156 | 1 | 71 | 0.0 | 0.0 | 0.00 | 0.00 | 0.00 | 94 | 1015.7 |
| 20260502091130 | 2 | 75 | 0.0 | 0.0 | 0.00 | 0.00 | 0.00 | 93 | 1016.1 |
| 20260502090627 | 2 | 82 | 0.0 | 0.0 | 0.00 | 0.00 | 0.00 | 93 | 1016.2 |
| 20260502090125 | 2 | 81 | 0.0 | 0.0 | 0.00 | 0.00 | 0.00 | 93 | 1016.1 |
| 20260502071516 | 3 | 57 | 0.0 | 0.0 | 0.00 | 0.00 | 0.00 | 85 | 1016.2 |
| 20260502071014 | 3 | 57 | 0.0 | 0.0 | 0.00 | 0.00 | 0.00 | 86 | 1016.1 |
| 20260502070512 | 3 | 66 | 0.0 | 0.0 | 0.00 | 0.00 | 0.00 | 86 | 1016.1 |
| 20260502070010 | 4 | 91 | 0.0 | 0.0 | 0.00 | 0.00 | 0.00 | 86 | 1016.1 |
| 20260502065508 | 4 | 76 | 0.0 | 0.0 | 0.00 | 0.00 | 0.00 | 84 | 1016.1 |
| 20260502065006 | 4 | 75 | 0.0 | 0.0 | 0.00 | 0.00 | 0.00 | 84 | 1016.1 |
| 20260502064504 | 4 | 66 | 0.0 | 0.0 | 0.00 | 0.00 | 0.00 | 84 | 1016.0 |
| 20260502064000 | 4 | 69 | 0.0 | 0.0 | 0.00 | 0.00 | 0.00 | 84 | 1016.0 |
| 20260502063459 | 4 | 92 | 0.0 | 0.0 | 0.00 | 0.00 | 0.00 | 85 | 1016.1 |
| 20260502062956 | 4 | 82 | 0.0 | 0.0 | 0.00 | 0.00 | 0.00 | 83 | 1016.2 |
| 20260502062452 | 3 | 63 | 0.0 | 0.0 | 0.00 | 0.00 | 0.00 | 84 | 1016.1 |
| 20260502061951 | 3 | 69 | 0.0 | 0.0 | 0.00 | 0.00 | 0.00 | 84 | 1016.2 |
| 20260502061449 | 3 | 72 | 0.0 | 0.0 | 0.00 | 0.00 | 0.00 | 84 | 1016.3 |
| 20260502060944 | 4 | 74 | 0.0 | 0.0 | 0.00 | 0.00 | 0.00 | 84 | 1016.4 |
| 20260502060439 | 4 | 75 | 0.0 | 0.0 | 0.00 | 0.00 | 0.00 | 84 | 1016.4 |
| 20260502055936 | 4 | 71 | 0.0 | 0.0 | 0.00 | 0.00 | 0.00 | 84 | 1016.1 |
| 20260502055434 | 4 | 73 | 0.0 | 0.0 | 0.00 | 0.00 | 0.00 | 83 | 1016.1 |
| 20260502054929 | 4 | 73 | 0.0 | 0.0 | 0.00 | 0.00 | 0.00 | 83 | 1016.2 |
| 20260502054427 | 5 | 74 | 0.0 | 0.0 | 0.00 | 0.00 | 0.00 | 82 | 1016.3 |
| 20260502053924 | 5 | 73 | 0.0 | 0.0 | 0.00 | 0.00 | 0.00 | 82 | 1016.2 |
| 20260502053421 | 5 | 71 | 0.0 | 0.0 | 0.00 | 0.00 | 0.00 | 81 | 1016.3 |
| 20260502052918 | 5 | 69 | 0.0 | 0.0 | 0.00 | 0.00 | 0.00 | 80 | 1016.4 |
| 20260502052416 | 5 | 73 | 0.0 | 0.0 | 0.00 | 0.00 | 0.00 | 79 | 1016.5 |
| 20260502051914 | 5 | 61 | 1.6 | 1.6 | 0.00 | 0.00 | 0.00 | 75 | 1016.4 |
| 20260502051412 | 5 | 100 | 0.0 | 1.6 | 0.00 | 0.00 | 0.00 | 75 | 1016.4 |
| 20260502050909 | 6 | 106 | 0.0 | 1.6 | 0.00 | 0.00 | 0.00 | 76 | 1016.4 |
| 20260502050405 | 6 | 74 | 0.0 | 0.0 | 0.00 | 0.00 | 0.00 | 72 | 1016.3 |
| 20260502045903 | 6 | 118 | 1.6 | 1.6 | 0.00 | 0.00 | 0.00 | 73 | 1016.4 |
| 20260502045359 | 6 | 79 | 0.0 | 0.0 | 0.00 | 0.00 | 0.00 | 72 | 1016.3 |
| 20260502044856 | 6 | 102 | 0.0 | 0.0 | 0.00 | 0.00 | 0.00 | 73 | 1016.5 |
| 20260502044352 | 7 | 99 | 0.0 | 0.0 | 0.00 | 0.00 | 0.00 | 70 | 1016.5 |
| 20260502043849 | 7 | 302 | 3.2 | 3.2 | 0.00 | 0.00 | 0.00 | 69 | 1016.6 |
| 20260502043347 | 7 | 320 | 3.2 | 4.8 | 0.00 | 0.00 | 0.00 | 69 | 1016.7 |
| 20260502042846 | 7 | 68 | 0.0 | 1.6 | 0.00 | 0.00 | 0.00 | 69 | 1016.7 |
| 20260502042343 | 7 | 62 | 3.2 | 4.8 | 0.00 | 0.00 | 0.00 | 72 | 1016.8 |
| 20260502041840 | 7 | 169 | 1.6 | 1.6 | 0.00 | 0.00 | 0.00 | 73 | 1016.6 |
| 20260502041337 | 7 | 45 | 1.6 | 1.6 | 0.00 | 0.00 | 0.00 | 72 | 1016.5 |
| 20260502040835 | 7 | 90 | 0.0 | 1.6 | 0.00 | 0.00 | 0.00 | 75 | 1016.5 |
| 20260502040332 | 7 | 93 | 0.0 | 0.0 | 0.00 | 0.00 | 0.00 | 76 | 1016.5 |
| 20260502035827 | 7 | 83 | 0.0 | 0.0 | 0.00 | 0.00 | 0.00 | 77 | 1016.5 |
| 20260502035325 | 7 | 107 | 0.0 | 0.0 | 0.00 | 0.00 | 0.00 | 75 | 1016.6 |
| 20260502034822 | 7 | 250 | 1.6 | 1.6 | 0.00 | 0.00 | 0.00 | 76 | 1016.4 |
| 20260502034320 | 7 | 154 | 3.2 | 3.2 | 0.00 | 0.00 | 0.00 | 76 | 1016.4 |
| 20260502033818 | 7 | 160 | 1.6 | 1.6 | 0.00 | 0.00 | 0.00 | 76 | 1016.5 |
| 20260502033316 | 8 | 154 | 6.4 | 9.7 | 0.00 | 0.00 | 0.00 | 77 | 1016.4 |
| 20260502032812 | 8 | 154 | 0.0 | 1.6 | 0.00 | 0.00 | 0.00 | 78 | 1016.3 |
| 20260502032308 | 8 | 80 | 0.0 | 0.0 | 0.00 | 0.00 | 0.00 | 77 | 1016.5 |
| 20260502031806 | 8 | 128 | 1.6 | 1.6 | 0.00 | 0.00 | 0.00 | 76 | 1016.4 |
| 20260502031304 | 8 | 121 | 3.2 | 3.2 | 0.00 | 0.00 | 0.00 | 77 | 1016.4 |
| 20260502030802 | 8 | 121 | 3.2 | 4.8 | 0.00 | 0.00 | 0.00 | 76 | 1016.3 |
| 20260502030259 | 8 | 156 | 1.6 | 3.2 | 0.00 | 0.00 | 0.00 | 75 | 1016.3 |
| 20260502025757 | 8 | 90 | 1.6 | 1.6 | 0.00 | 0.00 | 0.00 | 75 | 1016.3 |
| 20260502025255 | 8 | 137 | 3.2 | 4.8 | 0.00 | 0.00 | 0.00 | 76 | 1016.3 |
| 20260502024752 | 8 | 81 | 0.0 | 0.0 | 0.00 | 0.00 | 0.00 | 76 | 1016.3 |
| 20260502024250 | 8 | 95 | 1.6 | 1.6 | 0.00 | 0.00 | 0.00 | 75 | 1016.2 |
| 20260502023748 | 8 | 35 | 1.6 | 3.2 | 0.00 | 0.00 | 0.00 | 74 | 1016.2 |
| 20260502023245 | 8 | 79 | 0.0 | 0.0 | 0.00 | 0.00 | 0.00 | 75 | 1016.2 |
| 20260502022743 | 8 | 82 | 0.0 | 1.6 | 0.00 | 0.00 | 0.00 | 74 | 1016.0 |
| 20260502022239 | 8 | 112 | 0.0 | 0.0 | 0.00 | 0.00 | 0.00 | 74 | 1015.7 |
| 20260502021736 | 8 | 74 | 0.0 | 1.6 | 0.00 | 0.00 | 0.00 | 74 | 1016.0 |
| 20260502021233 | 8 | 74 | 3.2 | 3.2 | 0.00 | 0.00 | 0.00 | 73 | 1016.2 |
| 20260502020730 | 8 | 133 | 0.0 | 1.6 | 0.00 | 0.00 | 0.00 | 73 | 1015.6 |
| 20260502020227 | 8 | 91 | 1.6 | 1.6 | 0.00 | 0.00 | 0.00 | 72 | 1015.6 |
| 20260502015726 | 8 | 81 | 0.0 | 1.6 | 0.00 | 0.00 | 0.00 | 74 | 1015.6 |
| 20260502015221 | 8 | 52 | 0.0 | 0.0 | 0.00 | 0.00 | 0.00 | 73 | 1015.4 |
| 20260502014719 | 8 | 292 | 3.2 | 3.2 | 0.00 | 0.00 | 0.00 | 73 | 1015.4 |
| 20260502014216 | 9 | 77 | 0.0 | 0.0 | 0.00 | 0.00 | 0.00 | 73 | 1015.3 |
| 20260502013712 | 9 | 85 | 0.0 | 0.0 | 0.00 | 0.00 | 0.00 | 73 | 1015.4 |
| 20260502013207 | 8 | 350 | 1.6 | 1.6 | 0.00 | 0.00 | 0.00 | 72 | 1015.2 |
| 20260502012705 | 9 | 111 | 3.2 | 3.2 | 0.00 | 0.00 | 0.00 | 73 | 1015.2 |
| 20260502012203 | 9 | 106 | 1.6 | 1.6 | 0.00 | 0.00 | 0.00 | 71 | 1014.9 |
| 20260502011659 | 9 | 65 | 1.6 | 3.2 | 0.00 | 0.00 | 0.00 | 72 | 1014.8 |
| 20260502011155 | 9 | 64 | 1.6 | 1.6 | 0.00 | 0.00 | 0.00 | 72 | 1014.9 |
| 20260502010653 | 9 | 323 | 3.2 | 4.8 | 0.00 | 0.00 | 0.00 | 70 | 1015.0 |
| 20260502010149 | 10 | 100 | 1.6 | 1.6 | 0.00 | 0.00 | 0.00 | 71 | 1014.8 |
| 20260502005646 | 10 | 28 | 6.4 | 9.7 | 0.00 | 0.00 | 0.00 | 70 | 1014.8 |
| 20260502005144 | 10 | 332 | 6.4 | 9.7 | 0.00 | 0.00 | 0.00 | 70 | 1014.7 |
| 20260502004640 | 10 | 90 | 1.6 | 3.2 | 0.00 | 0.00 | 0.00 | 71 | 1014.6 |
| 20260502004137 | 10 | 114 | 0.0 | 1.6 | 0.00 | 0.00 | 0.00 | 73 | 1014.3 |
| 20260502003635 | 10 | 305 | 3.2 | 3.2 | 0.00 | 0.00 | 0.00 | 73 | 1014.4 |
| 20260502003132 | 10 | 113 | 3.2 | 3.2 | 0.00 | 0.00 | 0.00 | 73 | 1014.3 |
| 20260502002627 | 10 | 122 | 1.6 | 1.6 | 0.00 | 0.00 | 0.00 | 73 | 1014.1 |
| 20260502002125 | 10 | 132 | 1.6 | 3.2 | 0.00 | 0.00 | 0.00 | 73 | 1014.0 |
| 20260502001623 | 10 | 249 | 4.8 | 4.8 | 0.00 | 0.00 | 0.00 | 73 | 1013.9 |
| 20260502001120 | 10 | 353 | 1.6 | 1.6 | 0.00 | 0.00 | 0.00 | 72 | 1013.9 |
| 20260502000618 | 10 | 263 | 4.8 | 6.4 | 0.00 | 0.00 | 0.00 | 73 | 1013.6 |
| 20260502000115 | 10 | 133 | 3.2 | 6.4 | 0.00 | 0.00 | 0.00 | 74 | 1013.6 |
| 20260501235611 | 10 | 150 | 3.2 | 3.2 | 0.00 | 0.00 | 0.00 | 73 | 1013.6 |
| 20260501235107 | 10 | 299 | 6.4 | 9.7 | 0.00 | 0.00 | 0.00 | 72 | 1013.4 |
| 20260501234602 | 11 | 58 | 0.0 | 1.6 | 0.00 | 0.00 | 0.00 | 73 | 1013.6 |
| 20260501234100 | 11 | 283 | 4.8 | 6.4 | 0.00 | 0.00 | 0.00 | 72 | 1013.3 |
| 20260501233558 | 11 | 65 | 0.0 | 0.0 | 0.00 | 0.00 | 0.00 | 72 | 1013.1 |
| 20260501233055 | 11 | 180 | 3.2 | 4.8 | 0.00 | 0.00 | 0.00 | 71 | 1013.0 |
| 20260501232551 | 11 | 90 | 3.2 | 3.2 | 0.00 | 0.00 | 0.00 | 71 | 1012.9 |
| 20260501232049 | 11 | 67 | 1.6 | 4.8 | 0.00 | 0.00 | 0.00 | 71 | 1013.0 |
| 20260501231546 | 11 | 67 | 1.6 | 1.6 | 0.00 | 0.00 | 0.00 | 71 | 1012.9 |
| 20260501231044 | 11 | 11 | 8.0 | 11.3 | 0.00 | 0.00 | 0.00 | 70 | 1012.9 |
| 20260501230543 | 11 | 111 | 1.6 | 1.6 | 0.00 | 0.00 | 0.00 | 69 | 1012.7 |
| 20260501230040 | 12 | 86 | 0.0 | 1.6 | 0.00 | 0.00 | 0.00 | 68 | 1012.8 |
| 20260501225538 | 12 | 99 | 1.6 | 3.2 | 0.00 | 0.00 | 0.00 | 67 | 1012.9 |
| 20260501225034 | 12 | 87 | 1.6 | 3.2 | 0.00 | 0.00 | 0.00 | 65 | 1013.0 |
| 20260501224532 | 12 | 225 | 6.4 | 9.7 | 0.00 | 0.00 | 0.00 | 64 | 1012.9 |
| 20260501224028 | 12 | 11 | 3.2 | 3.2 | 0.00 | 0.00 | 0.00 | 62 | 1012.7 |
| 20260501223525 | 13 | 160 | 3.2 | 3.2 | 0.00 | 0.00 | 0.00 | 60 | 1012.6 |
| 20260501223021 | 13 | 357 | 9.7 | 14.5 | 0.00 | 0.00 | 0.00 | 58 | 1012.6 |
| 20260501222517 | 13 | 277 | 6.4 | 6.4 | 0.00 | 0.00 | 0.00 | 56 | 1012.4 |
| 20260501222014 | 14 | 23 | 6.4 | 11.3 | 0.00 | 0.00 | 0.00 | 55 | 1012.1 |
| 20260501221510 | 15 | 86 | 6.4 | 6.4 | 0.00 | 0.00 | 0.00 | 51 | 1012.0 |
| 20260501221009 | 15 | 55 | 6.4 | 9.7 | 0.00 | 0.00 | 0.00 | 47 | 1011.9 |
| 20260501220506 | 15 | 98 | 3.2 | 6.4 | 0.00 | 0.00 | 0.00 | 46 | 1011.8 |
| 20260501220003 | 15 | 13 | 3.2 | 4.8 | 0.00 | 0.00 | 0.00 | 45 | 1011.8 |
| 20260501215459 | 16 | 249 | 6.4 | 11.3 | 0.00 | 0.00 | 0.00 | 45 | 1012.0 |
| 20260501214954 | 16 | 2 | 6.4 | 11.3 | 0.00 | 0.00 | 0.00 | 43 | 1011.8 |
| 20260501214450 | 16 | 232 | 3.2 | 4.8 | 0.00 | 0.00 | 0.00 | 43 | 1011.9 |
| 20260501213945 | 16 | 292 | 9.7 | 11.3 | 0.00 | 0.00 | 0.00 | 44 | 1011.9 |
| 20260501213443 | 16 | 6 | 9.7 | 12.9 | 0.00 | 0.00 | 0.00 | 44 | 1011.8 |
| 20260501212938 | 16 | 325 | 12.9 | 14.5 | 0.00 | 0.00 | 0.00 | 41 | 1011.7 |
| 20260501212435 | 16 | 247 | 4.8 | 9.7 | 0.00 | 0.00 | 0.00 | 46 | 1011.6 |
| 20260501211932 | 16 | 299 | 3.2 | 3.2 | 0.00 | 0.00 | 0.00 | 41 | 1011.7 |
| 20260501211430 | 16 | 334 | 3.2 | 6.4 | 0.00 | 0.00 | 0.00 | 40 | 1011.6 |
| 20260501210927 | 16 | 41 | 14.5 | 22.5 | 0.00 | 0.00 | 0.00 | 39 | 1011.4 |
| 20260501210423 | 16 | 282 | 6.4 | 6.4 | 0.00 | 0.00 | 0.00 | 39 | 1011.5 |
| 20260501205920 | 17 | 333 | 11.3 | 16.1 | 0.00 | 0.00 | 0.00 | 38 | 1011.3 |
| 20260501205417 | 18 | 261 | 11.3 | 17.7 | 0.00 | 0.00 | 0.00 | 40 | 1011.6 |
| 20260501204914 | 17 | 323 | 19.3 | 22.5 | 0.00 | 0.00 | 0.00 | 37 | 1011.6 |
| 20260501204410 | 17 | 281 | 6.4 | 11.3 | 0.00 | 0.00 | 0.00 | 39 | 1011.7 |
| 20260501203906 | 18 | 1 | 12.9 | 14.5 | 0.00 | 0.00 | 0.00 | 38 | 1011.8 |
| 20260501203403 | 17 | 359 | 12.9 | 16.1 | 0.00 | 0.00 | 0.00 | 37 | 1011.6 |
| 20260501202901 | 18 | 75 | 1.6 | 1.6 | 0.00 | 0.00 | 0.00 | 39 | 1011.6 |
| 20260501202357 | 17 | 162 | 3.2 | 6.4 | 0.00 | 0.00 | 0.00 | 38 | 1011.6 |
| 20260501201854 | 17 | 168 | 1.6 | 1.6 | 0.00 | 0.00 | 0.00 | 42 | 1011.5 |
| 20260501201351 | 18 | 122 | 0.0 | 1.6 | 0.00 | 0.00 | 0.00 | 39 | 1011.4 |
| 20260501200847 | 17 | 227 | 6.4 | 6.4 | 0.00 | 0.00 | 0.00 | 35 | 1011.6 |
| 20260501200345 | 17 | 66 | 1.6 | 4.8 | 0.00 | 0.00 | 0.00 | 38 | 1011.4 |
| 20260501195843 | 17 | 257 | 3.2 | 3.2 | 0.00 | 0.00 | 0.00 | 40 | 1011.7 |
| 20260501195338 | 17 | 224 | 12.9 | 14.5 | 0.00 | 0.00 | 0.00 | 35 | 1011.5 |
| 20260501194834 | 17 | 152 | 8.0 | 11.3 | 0.00 | 0.00 | 0.00 | 35 | 1011.5 |
| 20260501194330 | 18 | 255 | 9.7 | 14.5 | 0.00 | 0.00 | 0.00 | 33 | 1011.7 |
| 20260501193827 | 17 | 285 | 14.5 | 16.1 | 0.00 | 0.00 | 0.00 | 35 | 1011.7 |
| 20260501193326 | 17 | 268 | 9.7 | 11.3 | 0.00 | 0.00 | 0.00 | 37 | 1011.8 |
| 20260501192823 | 18 | 200 | 6.4 | 6.4 | 0.00 | 0.00 | 0.00 | 36 | 1011.7 |
| 20260501192320 | 18 | 83 | 3.2 | 3.2 | 0.00 | 0.00 | 0.00 | 39 | 1012.0 |
| 20260501191816 | 18 | 95 | 1.6 | 1.6 | 0.00 | 0.00 | 0.00 | 38 | 1012.2 |
| 20260501191314 | 18 | 166 | 9.7 | 16.1 | 0.00 | 0.00 | 0.00 | 33 | 1012.0 |
| 20260501190810 | 18 | 309 | 4.8 | 9.7 | 0.00 | 0.00 | 0.00 | 35 | 1012.1 |
| 20260501190306 | 18 | 209 | 11.3 | 16.1 | 0.00 | 0.00 | 0.00 | 32 | 1012.1 |
| 20260501185756 | 18 | 104 | 6.4 | 14.5 | 0.00 | 0.00 | 0.00 | 31 | 1012.1 |
| 20260501185252 | 18 | 159 | 1.6 | 3.2 | 0.00 | 0.00 | 0.00 | 31 | 1011.9 |
| 20260501184748 | 18 | 167 | 6.4 | 9.7 | 0.00 | 0.00 | 0.00 | 29 | 1012.3 |
| 20260501184244 | 18 | 269 | 8.0 | 14.5 | 0.00 | 0.00 | 0.00 | 34 | 1012.2 |
| 20260501183741 | 18 | 176 | 4.8 | 4.8 | 0.00 | 0.00 | 0.00 | 30 | 1012.2 |
| 20260501183238 | 18 | 254 | 11.3 | 22.5 | 0.00 | 0.00 | 0.00 | 31 | 1012.2 |
| 20260501182734 | 17 | 339 | 6.4 | 11.3 | 0.00 | 0.00 | 0.00 | 32 | 1012.1 |
| 20260501182231 | 17 | 79 | 4.8 | 4.8 | 0.00 | 0.00 | 0.00 | 34 | 1012.3 |
| 20260501181728 | 17 | 187 | 8.0 | 11.3 | 0.00 | 0.00 | 0.00 | 29 | 1012.4 |
| 20260501181225 | 18 | 130 | 8.0 | 9.7 | 0.00 | 0.00 | 0.00 | 31 | 1012.2 |
| 20260501180723 | 17 | 115 | 3.2 | 3.2 | 0.00 | 0.00 | 0.00 | 30 | 1012.4 |
| 20260501180219 | 17 | 32 | 9.7 | 20.9 | 0.00 | 0.00 | 0.00 | 33 | 1012.7 |
| 20260501175716 | 17 | 296 | 17.7 | 22.5 | 0.00 | 0.00 | 0.00 | 29 | 1012.6 |
| 20260501175212 | 17 | 335 | 12.9 | 14.5 | 0.00 | 0.00 | 0.00 | 32 | 1012.4 |
| 20260501174709 | 17 | 250 | 4.8 | 12.9 | 0.00 | 0.00 | 0.00 | 35 | 1012.6 |
| 20260501174206 | 17 | 287 | 4.8 | 6.4 | 0.00 | 0.00 | 0.00 | 35 | 1012.6 |
| 20260501173703 | 17 | 176 | 3.2 | 4.8 | 0.00 | 0.00 | 0.00 | 30 | 1012.7 |
| 20260501173201 | 17 | 200 | 9.7 | 17.7 | 0.00 | 0.00 | 0.00 | 29 | 1012.6 |
| 20260501172657 | 17 | 185 | 6.4 | 11.3 | 0.00 | 0.00 | 0.00 | 29 | 1012.7 |
| 20260501172152 | 17 | 173 | 4.8 | 4.8 | 0.00 | 0.00 | 0.00 | 34 | 1012.9 |
| 20260501171648 | 17 | 315 | 3.2 | 4.8 | 0.00 | 0.00 | 0.00 | 31 | 1012.8 |